TimeEDT,TemperatureF,Dew PointF,Humidity,Sea Level PressureIn,VisibilityMPH,Wind Direction,Wind SpeedMPH,Gust SpeedMPH,PrecipitationIn,Events,Conditions,WindDirDegrees,DateUTC
12:53 AM,37.0,26.1,65,30.13,10.0,WSW,4.6,-,N/A,,Overcast,240,2013-03-28 04:53:00
1:53 AM,35.1,25.0,67,30.12,10.0,West,5.8,-,N/A,,Clear,260,2013-03-28 05:53:00
2:53 AM,37.9,25.0,60,30.11,10.0,WNW,9.2,-,N/A,,Clear,290,2013-03-28 06:53:00
3:53 AM,39.0,25.0,57,30.11,10.0,West,8.1,-,N/A,,Overcast,280,2013-03-28 07:53:00
4:53 AM,39.0,26.1,60,30.10,10.0,WSW,8.1,-,N/A,,Overcast,250,2013-03-28 08:53:00
5:53 AM,37.9,26.1,62,30.10,10.0,WSW,8.1,-,N/A,,Overcast,250,2013-03-28 09:53:00
6:53 AM,39.0,26.1,60,30.11,10.0,WSW,6.9,-,N/A,,Overcast,240,2013-03-28 10:53:00
7:53 AM,39.9,27.0,60,30.12,10.0,West,8.1,-,N/A,,Overcast,280,2013-03-28 11:53:00
8:53 AM,39.9,27.0,60,30.13,10.0,WNW,6.9,-,N/A,,Overcast,300,2013-03-28 12:53:00
9:53 AM,43.0,27.0,53,30.14,10.0,WNW,13.8,-,N/A,,Overcast,300,2013-03-28 13:53:00
10:53 AM,44.1,27.0,51,30.15,10.0,NW,13.8,21.9,N/A,,Overcast,310,2013-03-28 14:53:00
11:53 AM,44.1,28.0,53,30.17,10.0,NW,11.5,19.6,N/A,,Overcast,310,2013-03-28 15:53:00
12:53 PM,43.0,28.0,56,30.17,10.0,NNW,13.8,26.5,N/A,,Overcast,330,2013-03-28 16:53:00
1:53 PM,45.0,28.9,53,30.17,10.0,NW,15.0,20.7,N/A,,Overcast,310,2013-03-28 17:53:00
2:53 PM,44.1,30.0,58,30.17,10.0,WNW,17.3,26.5,N/A,,Overcast,290,2013-03-28 18:53:00
3:53 PM,44.1,30.0,58,30.17,10.0,WNW,11.5,24.2,N/A,,Overcast,300,2013-03-28 19:53:00
4:53 PM,45.0,28.9,53,30.17,10.0,WNW,12.7,-,N/A,,Mostly Cloudy,290,2013-03-28 20:53:00
5:53 PM,45.0,28.0,52,30.19,10.0,West,13.8,19.6,N/A,,Overcast,280,2013-03-28 21:53:00
6:53 PM,44.1,28.9,55,30.20,10.0,NW,9.2,-,0.00,,Overcast,310,2013-03-28 22:53:00
7:53 PM,43.0,30.0,60,30.22,10.0,NNW,5.8,-,0.00,,Overcast,330,2013-03-28 23:53:00
8:53 PM,43.0,28.9,58,30.24,10.0,WNW,8.1,-,N/A,,Overcast,300,2013-03-29 00:53:00
9:53 PM,42.1,28.9,60,30.24,10.0,WNW,5.8,-,N/A,,Overcast,300,2013-03-29 01:53:00
10:53 PM,39.9,28.0,63,30.25,10.0,WNW,4.6,-,N/A,,Mostly Cloudy,300,2013-03-29 02:53:00
11:53 PM,41.0,28.9,62,30.25,10.0,NW,4.6,-,N/A,,Overcast,310,2013-03-29 03:53:00